Regional Weather Roundup
Issued by NWS Sterling, VA

Home | Current Version | Previous Version | Text Only | Print | Product List | Glossary Off
Versions: 1 2 3 4 5 6 7 8 9 10 11 12 13 14 15 16 17 18 19 20 21 22 23 24 25 26 27 28 29 30 31 32 33 34 35 36 37 38 39 40 41 42 43 44 45 46 47 48 49 50

537
ASUS41 KLWX 200411
RWRLWX

REGIONAL WEATHER ROUNDUP
NATIONAL WEATHER SERVICE BALTIMORE MD/WASHINGTON DC
1200 AM EDT FRI APR 20 2018

Note: "FAIR" indicates few or no clouds below 12,000 feet
with no significant weather and/or obstructions to visibility.
 TC=TEMPERATURE CELSIUS

 * =Non NWS site. Station does not report precipitation (e.g. rain,
    snow, etc.), thunder, or fog.

DCZ001-MDZ009-015-VAZ040>042-051-053>054-200500-
WASHINGTON METRO

CITY           SKY/WX    TMP DP  RH WIND       PRES   REMARKS
WASHINGTON NAT FAIR      44  23  43 NW9       30.17R
DULLES         FAIR      41  25  53 NW8       30.15S
ANDREWS AFB    FAIR      43  22  43 NW18G28   30.14S WCI  35
FT BELVOIR     FAIR      40  26  57 CALM      30.16S
QUANTICO       FAIR      42  29  59 NW8       30.19R
COLLEGE PARK*  FAIR      43  22  43 NW9       30.15R
LEESBURG*      FAIR      43  28  56 N7        30.16S
MANASSAS*      FAIR      40  27  59 NW9       30.17S WCI  34
GAITHERSBURG*  FAIR      40  22  48 NW9G21    30.14R WCI  34

$$

MDZ006>007-011-014-200500-
BALTIMORE METRO

CITY           SKY/WX    TMP DP  RH WIND       PRES   REMARKS
BWI AIRPORT    FAIR      38  27  64 W8        30.13S WCI  32
MD SCIENCE CTR   N/A     43  25  49 MISG      30.13S
MARTIN STATE   FAIR      39  28  65 SW3       30.15R
ANNAPOLIS      FAIR      43  27  53 W5        30.14S
FORT MEADE*    FAIR      34  30  86 W8        30.17R WCI  27

$$

MDZ012-015-019>023-200500-
MARYLAND EASTERN SHORE

CITY           SKY/WX    TMP DP  RH WIND       PRES   REMARKS
OCEAN CITY     FAIR      41  25  53 NW10      30.12R WCI  35
SALISBURY      FAIR      42  26  53 NW7       30.13R
BAY BRIDGE AP* FAIR      43  28  56 W7        30.14S
CAMBRIDGE*       N/A    N/A N/A N/A MISG        N/A
EASTON*        FAIR      42  26  53 NW7       30.18R

$$

MDZ017>025-200500-
SOUTHERN MARYLAND

CITY           SKY/WX    TMP DP  RH WIND       PRES   REMARKS
PATUXENT RIVER FAIR      45  26  47 W8        30.16R
ST INIGOES     FAIR      42  29  59 W7        30.15S
LEONARDTOWN*   FAIR      37  28  70 W6        30.17S WCI  33

$$

MDZ003>005-200500-
NORTH CENTRAL MARYLAND

CITY           SKY/WX    TMP DP  RH WIND       PRES   REMARKS
FREDERICK*     FAIR      41  18  38 NW14G20   30.18S WCI  33
HAGERSTOWN APT FAIR      38  22  52 NW13      30.14S WCI  30
WESTMINSTER*   FAIR      39  21  48 NW12G25   30.11S WCI  32

$$

MDZ501>502-200500-
WESTERN MARYLAND

CITY           SKY/WX    TMP DP  RH WIND       PRES   REMARKS
OAKLAND*       FAIR      30  23  74 NW14G25   30.11R WCI  20
CUMBERLAND*    FAIR      41  23  48 NW15G31   30.21R WCI  33

$$

VAZ025>031-200500-
SHENANDOAH VALLEY

CITY           SKY/WX    TMP DP  RH WIND       PRES   REMARKS
WINCHESTER*    FAIR      37  27  65 NW7       30.16S WCI  32
FRONT ROYAL*   FAIR      43  25  49 N6        30.15R
LURAY*         CLOUDY    45  27  49 CALM      30.16S
NEW MARKET*    MOCLDY    40  26  59 N3        30.16S
STAUNTON*      MOCLDY    33  26  73 CALM      30.19F
WAYNESBORO*    FAIR      37  25  60 W3        30.17F

$$

WVZ021-048>050-054>055-200500-
EASTERN WEST VIRGINIA PANHANDLE

CITY           SKY/WX    TMP DP  RH WIND       PRES   REMARKS
MARTINSBURG    FAIR      41  23  48 NW14      30.14S WCI  33
PETERSBURG*    MOCLDY    42  28  56 W9        30.17S

$$

VAZ036>039-050-200500-
CENTRAL FOOTHILLS

CITY           SKY/WX    TMP DP  RH WIND       PRES   REMARKS
CHARLOTTESVILL FAIR      43  24  47 VRB3      30.18R
CULPEPER*      FAIR      39  25  58 SE3       30.18S
ORANGE*        FAIR      41  27  56 CALM      30.18S
GORDONSVILLE*  FAIR      38  29  71 CALM      30.18S
WARRENTON*     FAIR      40  24  53 SE6       30.16S

$$

VAZ055>057-200500-
NORTH AND CENTRAL PIEDMONT

CITY           SKY/WX    TMP DP  RH WIND       PRES   REMARKS
FREDERICKSBRG* FAIR      39  30  70 W5        30.18R
STAFFORD*      FAIR      37  29  71 CALM      30.22R

$$

NCZ024-NYZ072-PAZ021-071-VAZ022-071-200500-
OTHER REGIONAL OBSERVATIONS

CITY           SKY/WX    TMP DP  RH WIND       PRES   REMARKS
NEW YORK CITY  FAIR      39  24  55 NW8       30.03R WCI  33
PHILADELPHIA   FAIR      41  23  48 W13       30.09R WCI  34
PITTSBURGH     FAIR      35  22  58 N16       30.23R WCI  25
ROANOKE        MOCLDY    42  25  50 NW5       30.25S
RICHMOND       FAIR      43  27  53 NW6       30.19R
RALEIGH        FAIR      46  29  51 VRB3      30.20R

$$

ANZ530>537-200500-
MARINE OBSERVATIONS

STATION/POSITION TIME  TEMP    WIND        PRES
                       AIR SEA DIR/SP/G
                 (UTC) (F)     (DEG/KT/KT) (MB)
THOMAS PT LIGHT  0400   44 49  290/ 10/ 11 1021.8R
BALT KEY BRIDGE  0342   43     270/  7/  8 1020.4R
COVE POINT       0342   44     320/  6/  9 1021.6R
LEWISETTA        0342   47 54  330/ 16/ 20 1021.6R
SOLOMONS ISLAND  0342   45 52  290/  6/ 12 1020.8R
PINEY POINT      0348          340/ 19/ 21   N/A

$$





USA.gov is the U.S. government's official web portal to all federal, state and local government web resources and services.